Location: Newark
(46.2031°N, 3.4731°E)
Time: 07:40:58
(UTC+00:00)

ISS - Visible Passes

Search period start: 22 September 2019 00:00
Search period end: 02 October 2019 00:00
Orbit: 411 x 421 km, 51.6° (Epoch: 22 September)

Date Brightness Start Highest point End Pass type
(mag) Time Alt. Az. Time Alt. Az. Time Alt. Az.
22 Sep -3.6 19:22:39 10° WSW 19:25:57 71° NNW 19:26:55 42° NE visible
23 Sep -3.9 18:34:09 10° WSW 18:37:28 78° SSE 18:40:31 12° ENE visible
23 Sep -1.7 20:11:21 10° WNW 20:13:25 28° NW 20:13:25 28° NW visible
24 Sep -2.7 19:22:38 10° W 19:25:49 41° NNW 19:26:54 30° NNE visible
25 Sep -3.1 18:33:58 10° W 18:37:14 53° NNW 18:40:18 11° ENE visible
25 Sep -1.4 20:11:25 10° WNW 20:13:12 23° NW 20:13:12 23° NW visible
26 Sep -2.4 19:22:43 10° WNW 19:25:45 31° N 19:26:33 28° NNE visible
27 Sep -2.5 18:33:59 10° W 18:37:05 35° N 18:39:51 12° NE visible
27 Sep -1.2 20:11:17 10° WNW 20:12:44 21° NW 20:12:44 21° NW visible
28 Sep -2.5 19:22:39 10° WNW 19:25:40 31° N 19:26:00 30° NNE visible
29 Sep -2.3 18:33:58 10° WNW 18:36:58 30° N 18:39:15 15° NE visible
29 Sep -1.1 20:10:55 10° WNW 20:12:08 20° NW 20:12:08 20° NW visible
30 Sep -2.8 19:22:21 10° WNW 19:25:23 38° N 19:25:23 38° N visible
01 Oct -2.6 18:33:45 10° WNW 18:36:49 33° N 18:38:38 19° ENE visible
01 Oct -0.9 20:10:29 10° WNW 20:11:31 19° WNW 20:11:31 19° WNW visible
